FW5449 Weather Reports


time (UTC)temp
F
wind
direction
speed
knots
gust
knots
rain 1hr
in
rain 24hr
in
rain mn
in
humidity
%
barometer
mb
20260508041745 61 233 5.2 10.4 0.00 0.00 0.00 67 1016.4
20260508041513 61 240 4.3 7.8 0.00 0.00 0.00 68 1016.3
20260508040737 61 226 4.3 7.8 0.00 0.00 0.00 68 1016.3
20260508040238 62 236 3.5 7.8 0.00 0.00 0.00 67 1016.3
20260508035737 62 246 3.5 7.8 0.00 0.00 0.00 66 1016.2
20260508035233 62 234 3.5 7.8 0.00 0.00 0.00 65 1016.0
20260508034733 62 251 3.5 7.0 0.00 0.00 0.00 66 1016.2
20260508034454 62 252 2.6 7.0 0.00 0.00 0.00 67 1016.1
20260508033725 63 258 2.6 5.2 0.00 0.00 0.00 68 1016.1
20260508033223 63 246 3.5 5.2 0.00 0.00 0.00 69 1015.9
20260508032723 64 237 2.6 4.3 0.00 0.00 0.00 69 1015.7
20260508032218 65 239 2.6 4.3 0.00 0.00 0.00 67 1015.6
20260508031719 65 299 2.6 4.3 0.00 0.00 0.00 66 1015.6
20260508031441 66 281 1.7 4.3 0.00 0.00 0.00 64 1015.5
20260508030718 67 308 2.6 4.3 0.00 0.00 0.00 62 1015.4
20260508030217 67 313 2.6 4.3 0.00 0.00 0.00 60 1015.3
20260508025715 68 292 2.6 4.3 0.00 0.00 0.00 59 1015.3
20260508025215 68 321 2.6 3.5 0.00 0.00 0.00 59 1015.2
20260508024717 68 317 2.6 4.3 0.00 0.00 0.00 57 1015.3
20260508024215 68 333 1.7 4.3 0.00 0.00 0.00 58 1015.2
20260508023714 69 348 1.7 3.5 0.00 0.00 0.00 58 1015.2
20260508023205 69 346 2.6 4.3 0.00 0.00 0.00 58 1015.2
20260508022705 70 344 2.6 4.3 0.00 0.00 0.00 57 1015.2
20260508022405 71 350 2.6 5.2 0.00 0.00 0.00 59 1015.2
20260508022249 71 333 1.7 3.5 0.00 0.00 0.00 57 1015.2
20260508021159 71 336 2.6 5.2 0.00 0.00 0.00 59 1015.2
20260508020659 71 358 2.6 5.2 0.00 0.00 0.00 58 1015.2
20260508020202 71 356 2.6 5.2 0.00 0.00 0.00 58 1015.3
20260508015700 72 3 2.6 5.2 0.00 0.00 0.00 54 1015.3
20260508015201 72 341 1.7 3.5 0.00 0.00 0.00 51 1015.3
20260508014652 72 9 1.7 3.5 0.00 0.00 0.00 52 1015.3
20260508014150 72 319 0.9 2.6 0.00 0.00 0.00 51 1015.5
20260508013647 72 249 0.0 1.7 0.00 0.00 0.00 51 1015.5
20260508013152 73 51 0.9 2.6 0.00 0.00 0.00 49 1015.6
20260508012635 73 51 0.9 2.6 0.00 0.00 0.00 51 1015.6
20260508012125 73 45 1.7 5.2 0.00 0.00 0.00 50 1015.7
20260508011609 73 45 1.7 5.2 0.00 0.00 0.00 49 1015.6
20260508011104 73 11 0.9 3.5 0.00 0.00 0.00 51 1015.7
20260508010602 73 25 0.9 3.5 0.00 0.00 0.00 49 1015.7
20260508010055 73 25 1.7 3.5 0.00 0.00 0.00 52 1015.7
20260508005817 74 6 1.7 3.5 0.00 0.00 0.00 50 1015.8
20260508005054 73 347 1.7 3.5 0.00 0.00 0.00 52 1015.8
20260508004553 73 18 1.7 3.5 0.00 0.00 0.00 51 1015.8
20260508004310 73 347 1.7 3.5 0.00 0.00 0.00 51 1015.9
20260508003544 73 21 0.9 3.5 0.00 0.00 0.00 51 1015.9
20260508003304 73 301 0.9 3.5 0.00 0.00 0.00 52 1015.8
20260508002544 72 346 0.9 3.5 0.00 0.00 0.00 56 1016.0
20260508002044 72 36 0.9 3.5 0.00 0.00 0.00 50 1016.0
20260508001538 72 322 0.9 3.5 0.00 0.00 0.00 54 1016.0
20260508001038 71 150 0.9 3.5 0.00 0.00 0.00 53 1016.0
20260508000540 72 123 1.7 3.5 0.00 0.00 0.00 56 1016.1
20260508000036 71 144 1.7 4.3 0.00 0.00 0.00 54 1016.1
20260507235533 72 17 1.7 4.3 0.00 0.00 0.00 54 1016.1
20260507235028 72 307 1.7 5.2 0.00 0.00 0.00 57 1016.2
20260507234529 73 21 1.7 5.2 0.00 0.00 0.00 54 1016.2
20260507234030 71 65 1.7 5.2 0.00 0.00 0.00 55 1016.3
20260507233522 72 6 1.7 5.2 0.00 0.00 0.00 57 1016.3
20260507233023 73 37 1.7 5.2 0.00 0.00 0.00 55 1016.3
20260507232518 72 329 1.7 6.1 0.00 0.00 0.00 56 1016.4
20260507232014 72 311 1.7 6.1 0.00 0.00 0.00 54 1016.7
20260507231512 71 353 1.7 5.2 0.00 0.00 0.00 58 1016.8
20260507231011 71 38 1.7 5.2 0.00 0.00 0.00 58 1016.8
20260507230504 71 6 1.7 5.2 0.00 0.00 0.00 59 1016.9
20260507230003 71 21 1.7 3.5 0.00 0.00 0.00 60 1016.8
20260507225503 71 275 1.7 4.3 0.00 0.00 0.00 60 1017.0
20260507224949 71 270 2.6 7.0 0.00 0.00 0.00 60 1017.1
20260507224449 71 285 1.7 7.0 0.00 0.00 0.00 59 1017.1
20260507224214 70 265 1.7 4.3 0.00 0.00 0.00 60 1017.0
20260507223449 70 252 2.6 5.2 0.00 0.00 0.00 61 1017.2
20260507222949 71 325 2.6 5.2 0.00 0.00 0.00 60 1017.2
20260507222448 69 275 1.7 7.8 0.00 0.00 0.00 63 1017.3
20260507221949 70 252 2.6 7.8 0.00 0.00 0.00 66 1017.4
20260507221448 69 339 3.5 7.0 0.00 0.00 0.00 65 1017.4
20260507221213 70 168 3.5 7.0 0.00 0.00 0.00 65 1017.5
20260507220452 70 270 2.6 6.1 0.00 0.00 0.00 62 1017.6
20260507215945 69 298 2.6 7.0 0.00 0.00 0.00 64 1017.7
20260507215442 69 323 2.6 7.0 0.00 0.00 0.00 63 1017.6
20260507214942 68 222 2.6 7.8 0.00 0.00 0.00 68 1017.7
20260507214441 70 318 3.5 7.8 0.00 0.00 0.00 62 1017.7
20260507213939 69 245 3.5 7.0 0.00 0.00 0.00 64 1017.7
20260507213437 69 359 3.5 7.8 0.00 0.00 0.00 67 1017.8
20260507212937 69 279 2.6 7.8 0.00 0.00 0.00 67 1017.8
20260507212434 67 19 1.7 7.0 0.00 0.00 0.00 67 1017.8
20260507212151 68 299 1.7 5.2 0.00 0.00 0.00 68 1017.9
20260507211651 68 296 1.7 5.2 0.00 0.00 0.00 66 1017.9
20260507211153 67 218 1.7 4.3 0.00 0.00 0.00 67 1018.1
20260507210426 67 246 1.7 6.1 0.00 0.00 0.00 68 1018.1
20260507210145 67 6 2.6 7.0 0.00 0.00 0.00 67 1018.1
20260507205639 66 287 1.7 7.0 0.00 0.00 0.00 67 1018.3
20260507205138 66 167 2.6 7.0 0.00 0.00 0.00 67 1018.5
20260507204419 67 239 3.5 7.0 0.00 0.00 0.00 70 1018.4
20260507204142 66 265 2.6 7.0 0.00 0.00 0.00 68 1018.6
20260507203417 66 284 1.7 4.3 0.00 0.00 0.00 69 1018.7
20260507202914 66 282 2.6 5.2 0.00 0.00 0.00 67 1018.6
20260507202413 66 283 2.6 6.1 0.00 0.00 0.00 68 1018.8
20260507201907 66 299 3.5 7.0 0.00 0.00 0.00 69 1019.0
20260507201623 66 215 3.5 7.8 0.00 0.00 0.00 68 1019.0
20260507200907 65 93 2.6 7.8 0.00 0.00 0.00 72 1019.0
20260507200404 63 317 2.6 7.8 0.00 0.00 0.00 72 1019.0
20260507195902 64 17 2.6 7.8 0.00 0.00 0.00 72 1019.1
20260507195623 63 294 1.7 6.1 0.00 0.00 0.00 73 1019.1
20260507194901 64 51 1.7 6.1 0.00 0.00 0.00 74 1019.1
20260507194359 62 279 0.9 3.5 0.00 0.00 0.00 75 1019.3
20260507193859 62 16 0.9 3.5 0.00 0.00 0.00 73 1019.2
20260507193351 61 288 2.6 6.1 0.00 0.00 0.00 73 1019.3
20260507192854 61 23 1.7 6.1 0.00 0.00 0.00 74 1019.3
20260507192356 60 77 0.9 3.5 0.00 0.00 0.00 77 1019.3
20260507191843 60 49 1.7 4.3 0.00 0.00 0.00 77 1019.4
20260507191552 60 21 2.6 5.2 0.00 0.00 0.00 77 1019.4
20260507191056 60 22 2.6 5.2 0.00 0.00 0.00 79 1019.5
20260507190333 61 340 1.7 5.2 0.00 0.00 0.00 76 1019.6
20260507185831 59 260 0.9 3.5 0.00 0.00 0.00 76 1019.6
20260507185326 59 105 1.7 3.5 0.00 0.00 0.00 76 1019.7
20260507184823 60 39 1.7 3.5 0.00 0.00 0.00 75 1019.7
20260507184322 60 344 1.7 3.5 0.00 0.00 0.00 78 1019.7
20260507183820 59 292 0.9 3.5 0.00 0.00 0.00 79 1019.7
20260507183318 59 265 0.9 2.6 0.00 0.00 0.00 81 1019.7
20260507182817 59 182 1.7 3.5 0.00 0.00 0.00 81 1019.7
20260507182313 58 337 0.9 3.5 0.00 0.00 0.00 81 1019.7
20260507181812 58 308 0.9 3.5 0.00 0.00 0.00 79 1019.7
20260507181251 59 287 0.9 2.6 0.00 0.00 0.00 81 1019.8
20260507181021 58 203 0.9 2.6 0.00 0.00 0.00 82 1019.8
20260507180236 58 235 1.7 3.5 0.00 0.00 0.00 82 1019.8
20260507175737 58 300 1.7 3.5 0.00 0.00 0.00 83 1019.8
20260507175235 57 239 0.9 3.5 0.00 0.00 0.00 84 1019.9
20260507174733 58 321 0.9 3.5 0.00 0.00 0.00 82 1019.7
20260507174228 57 353 0.9 2.6 0.00 0.00 0.00 86 1019.8
20260507173724 57 345 0.9 2.6 0.00 0.00 0.00 83 1019.9
20260507173222 57 336 0.0 1.7 0.00 0.00 0.00 85 1019.8
20260507172721 56 345 0.0 1.7 0.00 0.00 0.00 85 1019.9
20260507172221 56 345 0.9 2.6 0.00 0.00 0.00 84 1020.0
20260507171712 56 18 0.9 2.6 0.00 0.00 0.00 84 1020.0
20260507171204 56 0 0.9 1.7 0.00 0.00 0.00 87 1020.0
20260507170701 56 335 0.9 2.6 0.00 0.00 0.00 87 1020.0
20260507170200 56 335 1.7 3.5 0.00 0.00 0.00 86 1020.0
20260507165658 56 345 0.9 3.5 0.00 0.00 0.00 88 1020.0
20260507165159 55 37 0.9 2.6 0.00 0.00 0.00 87 1019.9
20260507164658 55 37 0.9 3.5 0.00 0.00 0.00 88 1020.0
20260507164152 55 270 1.7 3.5 0.00 0.00 0.00 87 1019.9
20260507163651 55 27 1.7 3.5 0.00 0.00 0.00 88 1019.9
20260507163148 54 343 1.7 2.6 0.00 0.00 0.00 89 1020.0
20260507162649 54 316 1.7 3.5 0.00 0.00 0.00 90 1020.1
20260507162146 54 4 0.9 3.5 0.00 0.00 0.00 90 1020.0
20260507161641 54 256 0.9 2.6 0.00 0.00 0.00 90 1020.0
20260507161142 54 342 0.9 2.6 0.00 0.00 0.00 90 1019.9
20260507160631 54 343 0.9 2.6 0.00 0.00 0.00 91 1020.0
20260507160113 54 343 1.7 2.6 0.00 0.00 0.00 91 1020.0
20260507155603 53 48 1.7 2.6 0.00 0.00 0.00 90 1020.1
20260507155105 53 332 0.9 2.6 0.00 0.00 0.00 91 1020.1
20260507154604 53 332 0.9 2.6 0.00 0.00 0.00 91 1020.2
20260507154100 53 350 1.7 2.6 0.00 0.00 0.00 92 1020.2
20260507153559 53 333 1.7 3.5 0.00 0.00 0.00 93 1020.2
20260507153057 53 341 2.6 3.5 0.00 0.00 0.00 92 1020.3
20260507152820 53 7 1.7 3.5 0.00 0.00 0.00 92 1020.3
20260507152054 53 304 0.9 3.5 0.00 0.00 0.00 93 1020.3
20260507151542 53 315 0.9 2.6 0.00 0.00 0.00 93 1020.2
20260507151045 53 315 0.9 2.6 0.00 0.00 0.00 93 1020.1
20260507150534 53 293 0.0 0.9 0.00 0.00 0.00 94 1020.2
20260507150025 52 229 0.0 0.0 0.00 0.00 0.00 94 1020.1
20260507145523 52 229 0.0 0.0 0.00 0.00 0.00 94 1020.1
20260507145026 52 229 0.0 0.0 0.00 0.00 0.00 94 1020.1
20260507144518 52 229 0.0 0.0 0.00 0.00 0.00 94 1020.1
20260507144020 52 229 0.0 0.0 0.00 0.00 0.00 94 1020.1
20260507143509 52 229 0.0 0.0 0.00 0.00 0.00 94 1020.1
20260507143008 52 229 0.0 0.0 0.00 0.00 0.00 95 1020.1
20260507142459 52 229 0.0 0.0 0.00 0.00 0.00 95 1020.0
20260507141942 51 229 0.0 0.0 0.00 0.00 0.00 95 1019.9
20260507141422 51 229 0.0 0.0 0.00 0.00 0.00 95 1020.0
20260507140921 51 229 0.0 0.0 0.00 0.00 0.00 95 1020.0
20260507140423 51 229 0.0 0.0 0.00 0.00 0.00 95 1019.9
20260507135921 51 229 0.0 0.0 0.00 0.00 0.00 95 1019.9
20260507135622 51 229 0.0 0.0 0.00 0.00 0.00 95 1019.9
20260507134906 51 229 0.0 0.0 0.00 0.00 0.00 95 1019.9
20260507134351 51 229 0.0 0.0 0.00 0.00 0.00 95 1019.9
20260507134058 51 229 0.0 0.0 0.00 0.00 0.00 95 1019.8
20260507133333 51 227 0.0 0.0 0.00 0.00 0.00 95 1019.8
20260507132823 51 227 0.0 0.0 0.00 0.00 0.00 95 1019.8
20260507132324 51 229 0.0 0.0 0.00 0.00 0.00 95 1019.9
20260507132044 51 229 0.0 0.0 0.00 0.00 0.00 95 1019.8
20260507131314 51 229 0.0 0.0 0.00 0.00 0.00 95 1019.9
20260507130800 51 229 0.0 0.0 0.00 0.00 0.00 95 1019.9
20260507130510 51 229 0.0 0.0 0.00 0.00 0.00 95 1019.9
20260507125730 51 229 0.0 0.0 0.00 0.00 0.00 95 1020.0
20260507125224 51 229 0.0 0.0 0.00 0.00 0.00 95 1020.0
20260507124716 51 229 0.0 0.0 0.00 0.00 0.00 95 1020.0
20260507124202 51 229 0.0 0.0 0.00 0.00 0.00 95 1020.1
20260507123652 51 229 0.0 0.0 0.00 0.00 0.00 95 1020.0
20260507123357 51 229 0.0 0.0 0.00 0.00 0.00 95 1020.0
20260507122628 51 229 0.0 0.0 0.00 0.00 0.00 95 1020.1
20260507122118 51 229 0.0 0.0 0.00 0.00 0.00 95 1020.1
20260507121605 51 229 0.0 1.7 0.00 0.00 0.00 95 1020.2
20260507121051 51 229 0.9 1.7 0.00 0.00 0.00 95 1020.1
20260507120546 51 229 0.9 1.7 0.00 0.00 0.00 94 1020.1
20260507120044 51 229 0.0 1.7 0.00 0.00 0.00 94 1020.2
20260507115543 51 229 0.0 0.0 0.00 0.00 0.00 94 1020.3
20260507115031 51 229 0.0 0.0 0.00 0.00 0.00 94 1020.3
20260507114532 51 229 0.0 0.0 0.00 0.00 0.00 94 1020.4
20260507114019 51 229 0.0 0.0 0.00 0.00 0.00 94 1020.4
20260507113518 51 229 0.0 0.0 0.00 0.00 0.00 94 1020.4
20260507113234 51 229 0.0 0.0 0.00 0.00 0.00 93 1020.4
20260507112509 51 229 0.0 0.9 0.00 0.00 0.00 93 1020.4
20260507112009 51 229 0.0 1.7 0.00 0.00 0.00 92 1020.4
20260507111510 51 229 0.0 1.7 0.00 0.00 0.00 92 1020.4
20260507111220 51 229 0.0 1.7 0.00 0.00 0.00 91 1020.5
20260507110448 51 229 0.9 1.7 0.00 0.00 0.00 91 1020.4
20260507105945 51 229 0.9 1.7 0.00 0.00 0.00 91 1020.4
20260507105446 51 229 0.9 1.7 0.00 0.00 0.00 90 1020.5
20260507104946 51 229 0.9 2.6 0.00 0.00 0.00 90 1020.5
20260507104439 51 229 1.7 3.5 0.00 0.00 0.00 90 1020.5
20260507104159 51 229 1.7 3.5 0.00 0.00 0.00 90 1020.6
20260507103436 52 217 1.7 3.5 0.00 0.00 0.00 89 1020.6
20260507102927 52 227 0.9 3.5 0.00 0.00 0.00 89 1020.6
20260507102423 52 230 0.0 2.6 0.00 0.00 0.00 88 1020.6
20260507101923 52 202 0.0 0.0 0.00 0.00 0.00 88 1020.7
20260507101415 52 202 0.0 0.0 0.00 0.00 0.00 87 1020.6
20260507101131 52 202 0.0 0.0 0.00 0.00 0.00 87 1020.7
20260507100359 52 202 0.0 0.0 0.00 0.00 0.00 87 1020.7
20260507095847 52 202 0.0 0.0 0.00 0.00 0.00 86 1020.8
20260507095333 52 202 0.0 0.0 0.00 0.00 0.00 86 1020.7
20260507095041 52 176 0.0 0.0 0.00 0.00 0.00 87 1020.7
20260507094317 52 175 0.0 0.0 0.00 0.00 0.00 86 1020.7
20260507093817 53 175 0.0 0.0 0.00 0.00 0.00 87 1020.8
20260507093313 53 253 0.0 0.0 0.00 0.00 0.00 86 1020.8
20260507093032 53 253 0.0 0.0 0.00 0.00 0.00 86 1020.9
20260507092307 53 253 0.0 0.0 0.00 0.00 0.00 85 1021.0
20260507092026 53 253 0.0 0.0 0.00 0.00 0.00 85 1020.9
20260507091256 53 253 0.0 0.0 0.00 0.00 0.00 86 1021.1
20260507090750 53 253 0.0 0.0 0.00 0.00 0.00 86 1021.1
20260507090243 53 253 0.0 0.0 0.00 0.00 0.00 85 1021.1
20260507085743 53 253 0.0 0.9 0.00 0.00 0.00 86 1021.2
20260507085238 53 253 0.0 1.7 0.00 0.00 0.00 86 1021.2
20260507084726 53 253 0.9 1.7 0.00 0.00 0.00 86 1021.1
20260507084223 53 253 0.9 2.6 0.00 0.00 0.00 86 1021.2
20260507083720 53 253 1.7 2.6 0.00 0.00 0.00 86 1021.3
20260507083220 53 253 1.7 2.6 0.00 0.00 0.00 86 1021.3
20260507082717 53 222 1.7 3.5 0.00 0.00 0.00 86 1021.2
20260507082158 53 258 1.7 4.3 0.00 0.00 0.00 87 1021.3
20260507081920 53 270 1.7 4.3 0.00 0.00 0.00 86 1021.4
20260507081157 53 265 1.7 4.3 0.00 0.00 0.00 86 1021.3
20260507080656 53 242 2.6 4.3 0.00 0.00 0.00 86 1021.3
20260507080159 53 236 2.6 4.3 0.00 0.00 0.00 86 1021.3
20260507075651 53 265 1.7 4.3 0.00 0.00 0.00 86 1021.3
20260507075148 53 242 1.7 4.3 0.00 0.00 0.00 87 1021.3
20260507074643 53 227 1.7 3.5 0.00 0.00 0.00 87 1021.3
20260507074133 52 228 0.9 2.6 0.00 0.00 0.00 87 1021.4
20260507073624 52 228 0.9 2.6 0.00 0.00 0.00 87 1021.3
20260507073109 52 228 0.9 3.5 0.00 0.00 0.00 88 1021.3
20260507072822 52 228 1.7 3.5 0.00 0.00 0.00 88 1021.3
20260507072101 52 225 1.7 3.5 0.00 0.00 0.00 87 1021.3
20260507071559 52 222 2.6 4.3 0.00 0.00 0.00 87 1021.3
20260507071316 52 237 2.6 4.3 0.00 0.00 0.00 88 1021.3
20260507070549 52 233 2.6 4.3 0.00 0.00 0.00 87 1021.3
20260507070044 52 223 2.6 4.3 0.00 0.00 0.00 88 1021.3
20260507065543 52 241 2.6 4.3 0.00 0.00 0.00 88 1021.2
20260507065042 52 225 2.6 4.3 0.00 0.00 0.00 88 1021.2
20260507064539 52 235 1.7 3.5 0.00 0.00 0.00 89 1021.4
20260507064039 51 223 1.7 2.6 0.00 0.00 0.00 89 1021.3
20260507063544 51 230 1.7 3.5 0.00 0.00 0.00 89 1021.3
20260507063040 51 204 1.7 3.5 0.00 0.00 0.00 89 1021.3
20260507062538 51 226 1.7 3.5 0.00 0.00 0.00 89 1021.3
20260507062036 51 211 1.7 4.3 0.00 0.00 0.00 89 1021.3
20260507061535 51 206 2.6 4.3 0.00 0.00 0.00 88 1021.3
20260507061041 51 209 2.6 5.2 0.00 0.00 0.00 88 1021.2
20260507060537 51 227 2.6 5.2 0.00 0.00 0.00 88 1021.3
20260507060033 51 235 2.6 5.2 0.00 0.00 0.00 87 1021.3
20260507055534 51 245 3.5 7.0 0.00 0.00 0.00 88 1021.2
20260507055034 51 233 4.3 7.0 0.00 0.00 0.00 87 1021.1
20260507054532 52 232 3.5 7.0 0.00 0.00 0.00 87 1021.1
20260507054032 52 231 3.5 7.0 0.00 0.00 0.00 87 1021.1
20260507053533 52 225 3.5 7.0 0.00 0.00 0.00 87 1021.0
20260507053031 52 218 3.5 7.0 0.00 0.00 0.00 87 1021.0
20260507052531 52 234 3.5 7.8 0.00 0.00 0.00 87 1020.9
20260507052255 52 226 4.3 7.8 0.00 0.00 0.00 86 1020.9
20260507051528 52 222 4.3 7.8 0.00 0.00 0.00 86 1021.0
20260507051246 52 233 4.3 7.8 0.00 0.00 0.00 86 1020.9
20260507050527 53 213 4.3 7.8 0.00 0.00 0.00 86 1021.0
20260507050027 53 225 4.3 7.0 0.00 0.00 0.00 86 1020.9
20260507045748 53 223 4.3 8.7 0.00 0.00 0.00 85 1020.9
20260507045249 53 198 5.2 8.7 0.00 0.00 0.00 85 1020.8
20260507044523 53 230 5.2 8.7 0.00 0.00 0.00 85 1020.8
20260507044023 53 208 4.3 8.7 0.00 0.00 0.00 85 1020.7
20260507043521 53 218 4.3 8.7 0.00 0.00 0.00 85 1020.7
20260507043017 53 211 3.5 7.8 0.00 0.00 0.00 84 1020.7
20260507042517 53 213 3.5 8.7 0.00 0.00 0.00 84 1020.6
20260507042018 54 211 3.5 8.7 0.00 0.00 0.00 84 1020.6